Regional Weather Roundup
Issued by NWS Sterling, VA

Home | Current Version | Previous Version | Text Only | Print | Product List | Glossary On
Versions: 1 2 3 4 5 6 7 8 9 10 11 12 13 14 15 16 17 18 19 20 21 22 23 24 25 26 27 28
000
ASUS41 KLWX 241410
RWRLWX

REGIONAL WEATHER ROUNDUP
NATIONAL WEATHER SERVICE BALTIMORE MD/WASHINGTON DC
1000 AM EDT THU MAY 24 2018

Note: "FAIR" indicates few or no clouds below 12,000 feet
with no significant weather and/or obstructions to visibility.
 TC=TEMPERATURE CELSIUS

 * =Non NWS site. Station does not report precipitation (e.g. rain,
    snow, etc.), thunder, or fog.

DCZ001-MDZ009-015-VAZ040>042-051-053>054-241500-
WASHINGTON METRO

CITY           SKY/WX    TMP DP  RH WIND       PRES   REMARKS
WASHINGTON NAT FAIR      77  52  41 N8        30.19S
DULLES         FAIR      74  53  48 N8        30.20S
ANDREWS AFB    FAIR      75  52  44 N6        30.18S
FT BELVOIR     FAIR      76  54  45 N3        30.19S
QUANTICO       FAIR      74  61  63 E6        30.20R
COLLEGE PARK*  FAIR      74  50  41 NE8       30.18S
LEESBURG*      FAIR      73  57  56 NE7       30.22S
MANASSAS*      FAIR      75  56  51 N12       30.20S
GAITHERSBURG*  FAIR      75  53  46 VRB3      30.22R

$$

MDZ006>007-011-014-241500-
BALTIMORE METRO

CITY           SKY/WX    TMP DP  RH WIND       PRES   REMARKS
BWI AIRPORT    FAIR      75  51  43 NE7G17    30.17S
MD SCIENCE CTR   N/A     77  50  38 MISG      30.20S
MARTIN STATE   SUNNY     75  55  50 NW12      30.19S
ANNAPOLIS        N/A    N/A N/A N/A MISG      30.17S
FORT MEADE*    FAIR      73  52  46 N6        30.21R

$$

MDZ012-015-019>023-241500-
MARYLAND EASTERN SHORE

CITY           SKY/WX    TMP DP  RH WIND       PRES   REMARKS
OCEAN CITY     FAIR      76  57  51 N10       30.15S
SALISBURY      FAIR      76  57  51 N8        30.15S
BAY BRIDGE AP* FAIR      72  59  64 N12       30.18R
CAMBRIDGE*     SUNNY     75  57  53 N8        30.16S
EASTON*        SUNNY     75  55  50 N10       30.20S

$$

MDZ017>025-241500-
SOUTHERN MARYLAND

CITY           SKY/WX    TMP DP  RH WIND       PRES   REMARKS
PATUXENT RIVER FAIR      78  56  46 N10       30.17S
ST INIGOES     FAIR      75  55  49 N10G18    30.16S
LEONARDTOWN*   FAIR      73  54  49 N3        30.19S

$$

MDZ003>005-241500-
NORTH CENTRAL MARYLAND

CITY           SKY/WX    TMP DP  RH WIND       PRES   REMARKS
FREDERICK*     SUNNY     75  48  38 NE10      30.23S
HAGERSTOWN APT FAIR      72  56  57 CALM      30.22R
WESTMINSTER*   FAIR      72  52  49 N3        30.22R

$$

MDZ501>502-241500-
WESTERN MARYLAND

CITY           SKY/WX    TMP DP  RH WIND       PRES   REMARKS
OAKLAND*       FAIR      63  46  55 E6        30.29S
CUMBERLAND*    FAIR      66  59  77 CALM      30.29S

$$

VAZ025>031-241500-
SHENANDOAH VALLEY

CITY           SKY/WX    TMP DP  RH WIND       PRES   REMARKS
WINCHESTER*    FAIR      70  50  49 N5        30.25R
FRONT ROYAL*   FAIR      70  57  64 CALM      30.23S
LURAY*         FAIR      68  59  73 CALM      30.24S
NEW MARKET*    FAIR      70  58  66 NE5       30.23S
STAUNTON*      FAIR      68  57  67 NE3       30.26S
WAYNESBORO*    FAIR      68  58  72 CALM      30.25S

$$

WVZ021-048>050-054>055-241500-
EASTERN WEST VIRGINIA PANHANDLE

CITY           SKY/WX    TMP DP  RH WIND       PRES   REMARKS
MARTINSBURG    FAIR      71  56  58 NE3       30.22R
PETERSBURG*    FAIR      65  56  72 CALM      30.26S

$$

VAZ036>039-050-241500-
CENTRAL FOOTHILLS

CITY           SKY/WX    TMP DP  RH WIND       PRES   REMARKS
CHARLOTTESVILL FAIR      77  55  46 E7        30.21S
CULPEPER*      FAIR      76  57  51 N7        30.22R
ORANGE*        FAIR      72  55  56 N7        30.21S
GORDONSVILLE*  FAIR      74  54  49 N7        30.20S
WARRENTON*     FAIR      76  50  39 N8        30.20S

$$

VAZ055>057-241500-
NORTH AND CENTRAL PIEDMONT

CITY           SKY/WX    TMP DP  RH WIND       PRES   REMARKS
FREDERICKSBRG* FAIR      75  55  50 N6        30.18F
STAFFORD*      FAIR      75  56  51 NE7       30.23S

$$

NCZ024-NYZ072-PAZ021-071-VAZ022-071-241500-
OTHER REGIONAL OBSERVATIONS

CITY           SKY/WX    TMP DP  RH WIND       PRES   REMARKS
NEW YORK CITY  FAIR      72  44  36 MISG      30.16F
PHILADELPHIA   FAIR      74  51  44 N12       30.16R
PITTSBURGH     FAIR      69  52  54 CALM      30.24R
ROANOKE        PTSUNNY   72  58  61 N7        30.24S
RICHMOND       FAIR      77  58  51 N10       30.18R
RALEIGH        PTSUNNY   76  63  64 E10       30.17R

$$

ANZ530>537-241500-
MARINE OBSERVATIONS

STATION/POSITION TIME  TEMP    WIND        PRES
                       AIR SEA DIR/SP/G
                 (UTC) (F)     (DEG/KT/KT) (MB)
THOMAS PT LIGHT  1400   71 69   20/ 12/ 14 1022.6R
BALT KEY BRIDGE  1348   73     360/ 10/ 12 1021.8R
COVE POINT       1348   70     360/  9/ 12 1022.4R
LEWISETTA        1348   73 75  360/  5/  6 1021.7R
SOLOMONS ISLAND  1348   72 71  350/ 12/ 16 1021.5R
PINEY POINT      1336           10/  7/  9   N/A

$$





USA.gov is the U.S. government's official web portal to all federal, state and local government web resources and services.